Flag for Hungary Weather past 2 weeks in Debrecen, Hungary

Now
66 °F

Scattered clouds.


Feels Like: 66 °F
Forecast: 59 / 72 °F
Wind: 10 mph from South

Location: Debrecen Airport

Current Time: Sep 20, 2014 at 11:59:48 AM

Latest Report: Sep 20, 2014 at 11:15 AM


Visibility: N/A

Pressure: 30.04 "Hg

Humidity: 78%

Dew point: 59 °F

Location of DebrecenLocation

Historic Weather in Debrecen — Graph

°F

Debrecen temperature yesterday

Maximum temperature yesterday: 75 °F (at 12:45 PM)
Minimum temperature yesterday: 50 °F (at 4:45 AM)
Average temperature yesterday: 66 °F

Past Weeks' High & Low Weather Summary

 TemperatureHumidityPressure
High82 °F (Sep 8, 3:15 PM)100% (Sep 8, 5:15 AM)30.18 "Hg (Sep 8, 5:15 AM)
Low48 °F (Sep 18, 6:45 AM)36% (Sep 19, 3:15 PM)29.86 "Hg (Sep 11, 3:45 PM)
Average67 °F73%30.02 "Hg
* Reported Sep 5 10:15 AM — Sep 20 10:45 AM, Debrecen, Weather by CustomWeather, © 2014

Note: Actual official high and low records may vary slightly from our data, if they occured in-between our weather recording intervals... More about our weather records

Advertising

Debrecen weather history for previous 24 hours

 ConditionsComfort  
Time TempWeatherWind HumidityBarometerVisibility
10:45 AM
Sep 20
64 °FScattered clouds.13 mph78%30.04 "HgN/A
10:15 AM64 °FScattered clouds.9 mph78%30.04 "HgN/A
9:45 AM64 °FScattered clouds.13 mph78%30.04 "HgN/A
9:15 AM64 °FBroken clouds.13 mph78%30.04 "HgN/A
8:45 AM64 °FScattered clouds.12 mph73%30.04 "HgN/A
8:15 AM64 °FScattered clouds.10 mph73%30.04 "HgN/A
7:45 AM63 °FScattered clouds.12 mph77%30.04 "HgN/A
7:15 AM63 °FPassing clouds.12 mph77%30.04 "HgN/A
6:50 AM61 °FCool.9 mph77%30.04 "HgN/A
6:15 AM61 °FClear.7 mph77%30.07 "Hg10 mi
5:45 AM61 °FClear.5 mph77%30.04 "Hg10 mi
5:15 AM61 °FClear.7 mph77%30.04 "Hg10 mi
4:45 AM61 °FClear.5 mph77%30.07 "Hg10 mi
8:45 PM
Sep 19
64 °FClear.3 mph68%30.09 "Hg10 mi
8:15 PM64 °FClear.3 mph68%30.09 "Hg10 mi
7:45 PM66 °FClear.5 mph64%30.09 "Hg10 mi
7:15 PM68 °FSunny.2 mph60%30.09 "Hg10 mi
6:45 PM70 °FSunny.3 mph57%30.09 "Hg10 mi
6:15 PM70 °FSunny.5 mph53%30.09 "Hg10 mi
5:45 PM72 °FSunny.7 mph50%30.09 "Hg10 mi
5:15 PM73 °FSunny.10 mph44%30.09 "Hg10 mi
4:45 PM73 °FSunny.7 mph44%30.09 "Hg10 mi
4:15 PM73 °FSunny.8 mph44%30.12 "Hg10 mi
3:45 PM73 °FSunny.6 mph41%30.12 "Hg10 mi
3:15 PM75 °FSunny.8 mph36%30.12 "Hg10 mi
2:45 PM75 °FSunny.12 mph39%30.12 "Hg10 mi
2:15 PM75 °FSunny.5 mph41%30.12 "Hg10 mi
1:45 PM75 °FSunny.7 mph39%30.15 "Hg10 mi
1:15 PM75 °FSunny.8 mph39%30.15 "Hg10 mi
12:45 PM75 °FSunny.8 mph39%30.15 "Hg10 mi
12:15 PM73 °FSunny.8 mph41%30.18 "Hg10 mi
11:45 AM72 °FSunny.8 mph47%30.18 "Hg10 mi
11:15 AM72 °FSunny.9 mph50%30.18 "Hg10 mi
Weather by CustomWeather, © 2014

See weather overviewHow to use our weather pages